Regional Weather Roundup
Issued by NWS

Home | Current Version | Previous Version | Text Only | Print | Product List | Glossary On
Versions: 1 2 3 4 5 6 7 8 9 10 11 12 13 14 15 16 17 18 19 20 21 22 23 24 25 26 27 28 29 30 31 32 33 34 35 36 37 38 39 40 41 42 43 44 45 46 47 48 49 50
000
ASUS44 KEWX 300110
RWRTX
SOUTH TEXAS REGIONAL WEATHER ROUNDUP
NATIONAL WEATHER SERVICE AUSTIN/SAN ANTONIO TX
800 PM CDT SAT AUG 29 2015

NOTE: "FAIR" INDICATED FEW OR NO CLOUDS BELOW 12,000 FEET WITH NO
SIGNIFICANT WEATHER AND/OR OBSTRUCTIONS TO VISIBILITY.

* - THESE STATIONS ARE NOT NWS OR FAA STATIONS...AND ARE NOT SUBJECT
    TO NWS AND FAA QUALITY CONTROL.

TXZ171-172-183>190-300200-
TEXAS HILL COUNTRY AND EDWARDS PLATEAU

CITY           SKY/WX    TMP DP  RH WIND       PRES   REMARKS
JUNCTION       CLOUDY    86  57  37 NE10      30.01S
*LLANO         CLOUDY    86  59  39 NE6       30.01S
BURNET         CLOUDY    87  60  40 N9        30.01S
*HORSESHOE BAY CLOUDY    89  59  36 SE6       29.97F
*KERRVILLE     PTCLDY    86  58  39 E3        30.00S
*FREDERICKSBRG CLOUDY    85  54  34 CALM      30.00F
*ROCKSPRINGS   CLOUDY    86  57  37 NE8       30.06R
*BOERNE STAGE  CLEAR     84  59  42 SE6       30.00F
*CASTROVILLE   CLEAR     88  54  30 SE3       29.97S
HONDO          PTCLDY    89  57  33 SE12      29.97F
*UVALDE        PTCLDY    88  57  35 SE6       29.96S
DEL RIO        CLOUDY    92  54  27 SE8       29.91F HX  90
LAUGHLIN AFB   CLOUDY    93  55  28 SE9       29.92F HX  91
CARRIZO SPRGS  CLEAR     90  52  27 SE5       29.92S
*EAGLE PASS    CLEAR     88  55  33 E5        29.94S
$$

TXZ173-191>194-202-209-217>225-228-300200-
CENTRAL AND SOUTH CENTRAL TEXAS

CITY           SKY/WX    TMP DP  RH WIND       PRES   REMARKS
GEORGETOWN     NOT AVBL
AUSTIN/BERGSTM MOCLDY    88  61  40 SE7       29.95S
AUSTIN/MABRY   MOCLDY    88  60  38 SE5       29.97S
*AUSTIN/EXEC   MOCLDY    84  63  48 CALM      29.97S
*LAGO VISTA    MOCLDY    86  60  41 E3        29.99F
SAN MARCOS     MOCLDY    88  61  40 S7        29.97S
NEW BRAUNFELS  CLEAR     88  60  38 SE6       29.95S
RANDOLPH AFB   CLEAR     84  60  43 SE7       29.96S
PT SAN ANTONIO CLEAR     89  59  36 E8        29.94F
SAN ANTONIO    PTCLDY    88  58  36 SE10      29.96S
STINSON FIELD  CLEAR     88  59  37 E7        29.93S
*PLEASANTON    CLEAR     89  55  31 E5        29.94S
*LA GRANGE     CLEAR     87  67  50 E3        29.95S
*GIDDINGS      CLEAR     83  64  53 E5        30.00S
*GONZALES      CLEAR     88  62  41 E5        29.95S
$$

TXZ163>164-176>182-195>201-210>213-226-227-235-300200-
SOUTHEAST TEXAS

CITY           SKY/WX    TMP DP  RH WIND       PRES   REMARKS
COLLEGE STN    CLEAR     84  65  52 S7        29.96F
*BRYAN         CLEAR     84  65  52 S8        29.97S
*CALDWELL      CLEAR     82  64  54 SE5       30.00S
*CROCKETT      MOCLDY    86  63  45 S3        29.98S
*BRENHAM       CLEAR     84  66  53 S3        29.98S
HUNTSVILLE     PTCLDY    87  63  44 S5        29.97S
CONROE         CLEAR     81  64  56 SE6       29.98S
HOUSTON BUSH   PTCLDY    81  64  56 S7        29.97S
HOUSTON HOBBY  MOCLDY    80  63  55 S5        29.97S
*HOUSTON SW AP NOT AVBL
PEARLAND       PTCLDY    83  64  52 SE5       29.99S
HOUSTON HOOKS  PTCLDY    83  64  52 SE7       29.97S
ELLINGTON FLD  PTCLDY    82  64  54 SE5       29.99S
SUGAR LAND     PTCLDY    83  65  54 SE8       29.97S
*HOUSTON EXEC  PTCLDY    81  66  61 S8        29.98S
*CLEVELAND MUN PTCLDY    79  69  71 S5        29.98S
*WHARTON       PTCLDY    80  66  63 SE7       29.98R
*COLUMBUS      NOT AVBL
*EAGLE LAKE    CLEAR     83  68  60 SE5       29.96S
$$

TXZ214>216-236>238-300200-
THE UPPER TEXAS COAST

CITY           SKY/WX    TMP DP  RH WIND       PRES   REMARKS
*ORANGE        CLEAR     78  64  61 CALM      29.99S
PORT ARTHUR    CLEAR     76  67  73 S6        29.97F
GALVESTON      CLEAR     82  63  52 S5        29.99S
ANGLETON       CLEAR     79  69  71 SE3       29.98S
*BAY CITY      PTCLDY    80  71  72 SE5       29.97S
PALACIOS       PTCLDY    81  69  67 SE8       29.97S
$$

TXZ229>234-239>247-300200-
TEXAS COASTAL BEND AND RIO GRANDE PLAINS

CITY           SKY/WX    TMP DP  RH WIND       PRES   REMARKS
VICTORIA       PTCLDY    82  67  60 MISG      29.96S
*BEEVILLE      PTCLDY    84  69  61 SE8       29.95S
ROCKPORT       CLEAR     84  66  54 E10       29.95S
*PORT ARANSAS  PTCLDY    83  67  58 E7        29.96S
*PORT LAVACA   PTCLDY    81  67  61 SE8       29.97S
*INGLESIDE     CLEAR     82  66  57 SE7       29.96R
CORPUS CHRISTI PTCLDY    84  63  49 SE13      29.96R
CORPUS NAS     CLEAR     80  63  55 SE10      29.96R
*ROBSTOWN      CLEAR     86  66  52 E13       29.95S
ALICE          CLEAR     83  65  54 SE14      29.94R
KINGSVILLE NAS CLEAR     83  67  58 E12       29.95R
COTULLA        PTCLDY    92  54  27 E9        29.92S HX  90
*FAITH RANCH     N/A     93  48  21 E8        29.93R HX  90
LAREDO         PTCLDY    94  53  24 E10       29.92S HX  91
$$

TXZ248>255-300200-
DEEP SOUTH TEXAS

CITY           SKY/WX    TMP DP  RH WIND       PRES   REMARKS
BROWNSVILLE    CLEAR     83  72  69 SE10      29.94S
PORT ISABEL    CLEAR     85  73  67 SE13      29.94R HX  91
*SOUTH PADRE   CLEAR     84  73  70 SE15      29.94S HX  91
HARLINGEN      CLEAR     84  72  67 E14       29.93R
*HEBBRONVILLE  NOT AVBL
MCALLEN        CLEAR     89  70  53 SE15      29.92R HX  94
*WESLACO       CLEAR     86  69  57 E12G17    29.93R HX  90
FALFURRIAS     CLEAR     84  63  49 E8        29.94R
EDINBURG       CLEAR     88  67  51 SE13      29.93R HX  91
*ZAPATA        CLEAR     93  53  25 SE8       29.90R HX  90
$$

TXZ213>215-236>238-242>244-246-247-251-254-255-300200-
CMAN STATIONS

STATION/POSITION TIME  TEMP    WIND        PRES    WAVE
                       AIR SEA DIR/SP/G            HT/PER
                 (UTC) (F)     (DEG/KT/KT) (MB)    (FT/S)
$$

GMZ080-GMZ150>470-300200-
OFFSHORE BUOY REPORTS

STATION/POSITION TIME  TEMP    WIND        PRES    WAVE
                       AIR SEA DIR/SP/G            HT/PER
                 (UTC) (F)     (DEG/KT/KT) (MB)    (FT/S)
$$


USA.gov is the U.S. government's official web portal to all federal, state and local government web resources and services.